Theta_e
303 309 320 317 313 311 309 308 308 307 306 303 302 301 301 301 301 301 303 303 303 304 302 302 302 302 300 298 297 297 296 296 296 295 296 298 304 304 303 303 302 302 302
300 313 313 312 312 310 308 307 308 306 306 304 303 302 301 301 301 302 301 302 302 304 303 302 302 301 300 299 297 296 296 295 295 293 292 291 295 297 300 303 303 300 299
299 309 310 309 307 307 306 307 307 307 306 305 303 301 301 300 300 300 300 301 301 303 303 302 301 301 300 299 297 296 296 294 295 295 293 289 288 291 296 299 301 298 296
299 307 307 305 305 305 305 307 307 307 306 304 302 300 299 298 298 299 300 300 301 302 303 303 302 301 301 299 298 298 296 294 293 295 298 295 294 290 291 295 296 297 297
295 301 303 306 305 305 304 305 306 306 304 303 302 299 298 298 299 298 298 298 299 300 302 303 303 302 301 300 299 298 296 295 294 294 294 294 293 293 292 290 292 295 295
293 295 297 302 303 303 303 304 305 304 303 302 301 300 299 298 297 296 296 297 297 298 300 302 301 302 301 300 300 299 297 296 296 295 295 294 293 292 291 290 290 291 294
293 295 299 300 302 302 302 303 303 302 303 302 301 301 300 299 297 297 296 296 297 297 298 300 300 300 300 301 300 299 297 297 296 295 295 296 295 295 294 292 291 290 292
293 295 300 301 302 303 302 303 302 301 301 302 301 301 301 300 299 298 298 297 297 297 298 299 299 299 300 300 299 298 297 297 296 295 295 295 296 296 295 294 292 289 289
292 293 295 297 299 299 301 302 301 301 301 301 301 301 301 300 300 299 298 297 296 298 298 298 298 298 298 297 297 296 296 296 296 295 295 294 295 295 295 294 294 291 287
292 293 294 294 295 295 295 296 296 296 296 299 300 301 300 300 300 298 298 298 297 297 296 296 296 297 296 296 295 294 295 294 294 295 294 294 294 294 294 294 293 293 291
291 292 293 293 293 293 294 295 295 295 295 296 295 295 296 297 297 296 296 296 296 296 295 295 295 295 294 294 292 292 292 292 292 292 292 293 293 293 293 293 293 292 291
291 291 291 291 291 291 292 292 293 294 293 294 294 294 294 294 294 294 294 295 294 294 294 294 294 294 293 293 292 291 291 291 290 290 290 290 293 290 291 291 291 291 291
290 289 289 289 290 290 291 291 292 292 292 292 292 291 291 291 291 292 293 294 294 294 294 294 293 293 294 293 292 291 290 290 290 289 289 289 289 288 289 289 289 289 292
290 289 288 288 289 290 290 290 290 290 290 290 289 288 288 288 288 289 290 290 290 290 290 290 290 290 292 293 292 292 291 290 290 291 291 290 290 289 289 290 289 290 289
289 288 288 288 288 287 288 288 288 288 288 287 287 286 286 286 286 286 287 287 287 288 288 288 288 288 289 291 290 290 289 288 288 289 289 290 292 295 295 294 291 291 290
288 288 288 288 287 286 286 286 286 286 286 285 285 286 285 285 285 285 285 285 285 285 286 285 286 286 288 293 294 293 289 289 288 287 288 289 292 292 295 295 295 293 289
288 288 287 286 285 284 285 284 284 285 284 284 284 284 284 284 284 284 284 283 283 283 284 284 285 285 285 291 292 293 288 288 287 287 286 287 290 290 289 291 294 293 294
287 286 284 283 283 282 282 282 283 282 282 282 283 284 284 284 284 284 283 283 283 283 283 283 283 283 284 290 291 291 287 285 285 285 285 285 285 286 288 288 287 288 288
286 285 283 282 281 281 280 280 280 281 282 282 283 284 285 284 284 283 283 283 282 282 282 282 282 281 282 288 289 289 285 284 284 285 285 285 284 289 292 286 285 286 287
285 282 281 281 280 280 281 281 281 281 282 283 284 284 284 284 283 282 282 282 281 281 282 281 281 283 281 286 289 288 284 282 282 282 283 288 288 291 291 285 283 282 284
282 282 282 281 281 282 282 281 281 282 284 284 284 284 283 283 282 281 281 280 280 280 279 279 280 280 281 282 288 289 284 282 283 282 282 283 289 290 291 291 284 284 286
283 283 282 282 283 284 283 282 282 283 284 283 283 283 282 283 282 280 279 279 278 278 278 278 279 280 280 285 286 288 288 288 283 282 282 282 289 290 290 289 290 290 289
283 284 283 282 282 283 283 281 282 283 282 282 281 281 281 281 281 279 278 278 278 277 277 278 278 279 280 280 286 287 288 288 285 284 286 289 289 289 288 289 289 289 282
282 282 281 281 281 282 282 282 282 282 281 280 279 280 279 280 279 280 279 278 277 277 279 279 279 278 279 280 280 282 282 285 285 286 284 286 288 288 287 285 284 282 281
282 283 282 281 280 281 281 281 281 281 279 279 279 278 279 278 278 279 278 277 278 279 279 279 279 279 279 281 286 285 284 284 285 286 284 282 280 281 281 281 280 281 280
282 281 281 280 280 280 280 280 280 280 278 278 278 278 278 277 278 276 276 282 284 285 285 286 284 283 285 286 286 287 287 287 288 283 280 279 280 279 280 280 280 280 281
Wind_Speed
8 6 8 10 10 8 10 10 10 7 7 3 4 2 2 1 1 1 3 4 3 3 3 2 2 2 3 2 2 2 4 3 4 3 4 3 3 3 3 2 2 4 4
6 7 8 8 13 13 10 8 8 8 6 4 3 3 3 2 2 2 2 3 3 3 3 3 2 2 2 3 3 4 2 2 4 2 1 4 4 4 3 3 3 4 3
10 9 9 8 8 11 10 10 9 9 6 6 4 3 4 3 2 0 1 1 3 3 3 2 2 2 2 2 1 2 3 2 2 4 2 2 1 3 3 3 2 5 3
5 8 9 8 9 7 7 8 8 8 7 7 5 5 4 4 3 3 2 2 2 3 3 2 2 2 2 2 1 2 2 2 2 2 2 1 2 0 4 3 3 4 4
7 9 8 8 6 8 8 7 8 7 7 7 6 5 3 2 2 2 4 2 1 2 3 3 2 2 2 1 2 1 2 1 1 1 2 2 2 1 2 4 5 4 2
7 7 5 8 6 5 6 7 8 6 7 7 7 7 7 5 3 2 3 2 1 2 3 3 2 2 2 2 2 2 2 1 1 0 0 1 0 1 0 2 3 3 4
6 6 7 7 8 8 7 6 7 6 7 7 7 7 6 6 6 4 3 3 2 2 4 3 3 2 2 3 2 2 1 2 1 1 2 1 2 1 2 2 3 2 4
5 6 6 7 8 8 7 7 7 6 7 7 6 5 5 3 3 3 3 3 3 2 2 4 3 3 2 2 2 1 2 2 2 3 3 2 3 2 2 2 1 3 3
7 7 7 6 7 6 5 6 6 5 5 6 5 5 4 5 4 4 2 2 2 2 3 3 3 2 2 2 2 2 3 2 3 4 4 3 3 3 3 2 3 3 3
8 8 8 8 7 7 6 8 7 7 4 4 3 2 1 1 1 2 2 1 0 1 2 1 1 1 2 2 2 2 3 3 3 3 4 3 3 4 3 3 3 3 4
8 8 8 7 7 7 7 7 7 8 8 7 7 7 6 6 6 6 5 5 5 5 5 4 3 3 3 3 2 2 4 3 4 3 4 5 4 4 4 3 3 4 4
9 8 8 7 7 7 7 7 7 9 7 6 9 9 8 7 8 7 6 6 7 6 6 6 6 6 5 4 4 4 4 4 5 5 5 6 3 6 4 3 5 4 4
10 8 8 7 7 7 7 8 7 8 6 8 9 8 8 8 8 7 6 7 6 6 7 6 6 6 6 6 6 5 5 5 5 5 5 6 6 5 4 4 5 4 5
11 8 8 7 7 6 6 7 7 6 6 8 8 8 7 7 6 6 6 7 6 7 6 6 6 6 6 5 5 6 6 6 5 5 5 6 5 6 6 6 6 6 4
12 10 9 8 6 6 6 6 6 6 6 8 8 7 6 6 6 7 6 6 7 6 6 6 6 6 5 4 6 5 4 5 6 6 5 5 7 12 10 5 5 5 4
13 12 11 10 8 8 7 6 6 6 6 7 7 6 6 6 6 6 6 6 6 6 6 6 5 6 4 11 12 9 5 5 5 6 6 5 9 9 14 15 14 10 6
14 13 11 9 8 7 7 7 6 6 6 7 6 6 6 6 5 5 5 5 5 4 5 5 5 6 6 14 15 15 5 5 6 6 6 6 6 9 6 12 17 14 15
14 12 10 8 7 6 6 6 6 6 6 6 6 5 5 5 5 5 5 5 3 5 5 5 6 5 6 15 16 17 7 6 7 7 7 7 7 7 9 8 7 8 7
13 11 9 7 7 7 7 7 6 6 6 5 5 4 4 4 5 5 5 4 3 4 4 4 6 6 7 15 17 14 6 6 7 6 7 6 7 12 14 8 7 7 8
12 12 9 7 7 5 7 7 6 6 5 4 3 3 3 3 4 4 5 2 2 4 4 5 5 8 6 13 16 13 4 5 5 6 7 14 11 15 16 7 6 6 8
14 11 10 8 7 6 7 7 6 5 3 3 3 3 3 3 3 3 2 3 4 4 5 5 5 6 7 7 14 17 8 5 7 5 6 5 15 16 16 16 5 7 9
13 11 9 7 6 6 6 5 5 2 2 3 3 3 4 3 3 3 4 5 5 5 5 5 5 4 5 11 12 19 18 16 7 8 5 5 13 16 19 16 17 19 17
10 9 8 7 6 6 5 5 2 3 3 4 3 3 4 4 4 4 4 4 4 4 5 5 4 4 4 4 14 18 19 17 10 6 12 22 21 20 14 15 18 18 4
9 7 8 7 6 5 5 4 4 3 3 2 3 3 3 4 4 3 3 3 4 4 5 5 4 4 4 4 5 6 7 13 9 11 9 12 17 19 14 12 9 5 5
8 8 7 6 5 4 4 4 3 2 2 2 3 4 3 4 4 4 4 4 5 5 5 4 4 5 6 6 15 14 9 8 10 14 4 3 3 5 6 5 5 5 5
6 6 6 6 4 4 3 3 3 3 3 2 2 3 2 3 3 3 4 9 12 14 15 16 13 7 15 19 20 19 19 21 21 6 3 4 5 6 6 6 6 5 8
Wind_Direction
226 183 162 150 136 134 139 152 146 150 136 123 121 106 158 138 92 150 144 124 112 98 89 75 58 66 68 65 23 24 34 348 344 360 349 355 5 12 358 6 14 19 7
168 154 149 144 160 158 155 150 149 151 154 134 139 142 150 162 146 150 137 132 123 115 116 102 84 105 100 49 46 44 14 353 21 53 46 9 335 351 4 351 8 6 336
183 161 156 157 142 154 158 158 158 157 155 140 109 81 75 58 69 80 178 193 151 141 124 120 118 98 103 99 80 84 70 26 337 29 124 31 298 329 331 358 2 357 330
159 158 153 147 157 163 150 153 156 152 152 148 135 144 151 159 203 178 177 174 166 159 147 138 133 127 125 124 149 113 92 102 26 332 25 31 152 84 332 324 312 337 319
145 149 152 157 161 148 163 157 145 146 146 151 154 149 149 166 147 131 146 169 199 181 186 166 153 153 150 155 139 99 94 93 124 126 341 358 15 43 126 292 319 327 317
112 108 123 149 141 133 137 145 147 154 147 150 158 161 164 167 148 151 170 196 207 225 218 189 176 187 185 187 189 145 141 156 120 253 257 217 279 288 22 299 303 269 297
123 121 129 134 133 142 146 142 143 150 160 159 163 174 178 176 184 179 184 178 191 222 225 193 198 207 213 211 178 179 200 195 185 221 265 234 242 218 213 188 268 298 300
97 101 117 122 129 134 142 140 150 147 165 169 179 172 172 177 188 183 185 200 201 217 206 197 197 227 226 209 204 202 228 220 230 242 238 262 256 236 218 216 185 320 302
97 95 82 81 90 98 109 147 151 147 170 179 170 180 180 177 189 187 164 183 198 216 168 172 199 224 242 236 218 231 248 239 243 252 248 238 265 250 247 229 189 178 294
100 89 87 86 74 74 76 78 85 91 82 123 140 152 186 189 138 130 152 170 212 53 113 163 232 279 288 282 235 255 265 253 269 258 268 262 255 261 249 238 228 206 205
118 108 97 83 84 75 69 73 70 76 66 68 71 73 61 67 71 65 50 51 52 43 49 38 32 19 8 0 344 302 289 289 297 300 284 283 276 275 268 251 238 235 194
119 110 101 96 86 82 77 77 72 78 67 68 76 70 68 66 67 61 56 57 63 51 56 51 52 42 31 17 11 347 343 339 334 330 330 311 324 302 287 268 260 241 230
118 112 102 99 95 87 83 81 77 82 75 82 82 74 67 71 67 62 57 55 56 50 43 45 41 27 19 25 17 20 14 8 355 347 337 316 327 311 303 290 273 261 264
134 124 115 109 102 96 92 89 84 81 85 85 84 81 72 72 69 63 57 54 49 48 38 35 32 23 16 28 13 7 360 353 346 337 331 316 312 304 305 298 280 278 266
145 142 136 131 121 112 106 99 91 88 90 87 81 77 73 67 62 55 50 47 43 38 32 24 14 9 0 0 358 354 345 334 326 321 312 306 308 309 310 316 314 307 287
153 147 143 140 137 133 128 118 111 103 95 88 88 83 72 65 57 48 42 40 27 19 18 9 360 346 339 333 333 337 312 297 290 295 302 298 301 299 305 308 312 311 310
154 151 148 143 140 139 134 128 124 113 97 97 91 83 77 67 50 42 36 23 9 2 357 349 346 338 331 328 327 322 302 290 285 277 276 287 286 301 290 297 298 294 296
149 145 142 138 138 134 129 128 124 116 108 98 90 77 66 54 35 27 17 357 350 351 340 331 326 323 310 316 317 316 302 285 269 262 265 264 272 275 291 292 278 274 269
145 143 139 134 131 134 136 121 117 113 102 96 88 70 54 35 17 4 348 335 329 325 311 305 311 308 294 308 313 316 295 283 279 282 279 269 263 272 288 298 292 285 281
136 136 131 120 121 132 129 113 117 118 110 103 91 69 46 27 357 340 335 302 302 285 300 293 277 284 295 312 324 331 315 303 287 279 268 284 284 273 289 295 280 287 285
129 126 124 129 134 130 118 110 112 107 111 99 76 50 28 1 350 347 313 304 307 309 312 307 303 301 309 312 324 325 320 306 305 298 298 283 299 304 298 301 281 260 292
127 127 124 126 129 121 110 112 104 104 95 78 49 25 12 355 348 346 332 337 337 323 309 309 304 294 307 314 316 316 313 309 305 297 286 280 293 297 300 299 294 299 304
121 119 119 111 98 104 113 109 94 69 59 46 18 356 348 347 349 355 333 322 325 322 307 300 300 290 290 286 298 308 308 306 301 287 286 297 302 300 297 290 297 303 290
110 107 109 112 93 80 83 89 75 65 60 24 349 339 347 327 340 333 327 324 308 299 293 287 278 267 268 270 270 274 275 283 289 282 284 291 295 302 299 304 299 283 271
95 94 96 101 102 91 80 66 58 66 46 14 342 345 340 317 315 305 285 269 263 258 283 286 279 293 296 283 303 317 314 310 304 314 300 269 273 285 285 283 272 274 274
89 92 97 105 102 87 72 28 21 47 37 325 295 281 272 281 276 272 285 301 302 308 309 308 307 302 307 314 314 315 317 314 315 319 290 286 278 274 279 277 279 270 280